User: anonymous   Login
Location: Buckeye Ditch
(40.9104°N, 122.9517°W)
Time: 00:41:55
(UTC+00:00)
Language:

H-2A R/B - Orbit

View from above orbital plane
View from above orbital plane
View from above satellite
View from above satellite

Ground track
Ground track

The orbit data is extracted from the following two-line orbital elements,

1 27601U 02056E   24175.59113551  .00000287  00000-0  11698-3 0  9993
2 27601  98.2299 152.3431 0070262 221.6529 254.9687 14.32840445124700
Epoch (UTC): 23 June 2024 14:11:14
Eccentricity: 0.0070262
inclination: 98.2299°
perigee height: 732 km
apogee height: 832 km
right ascension of ascending node: 152.3431°
argument of perigee: 221.6529°
revolutions per day: 14.32840445
mean anomaly at epoch: 254.9687°
orbit number at epoch: 12470

The dashed part of the orbit path shows where the satellite is in the earth's shadow,  

DLR